GW2591 Weather Reports


Display with metric or nautical units.
time (UTC)temp
F
wind
direction
speed
MPH
gust
MPH
rain 1hr
in
rain 24hr
in
rain mn
in
humidity
%
barometer
mb
20260503223942 55 241 33.0 40.0 0.00 0.00 0.00 55 1011.8
20260503223439 55 250 21.0 36.0 0.00 0.00 0.00 55 1011.6
20260503222934 55 239 26.0 39.0 0.00 0.00 0.00 54 1011.5
20260503222433 57 245 26.0 30.0 0.00 0.00 0.00 50 1011.6
20260503221931 59 250 22.0 29.0 0.00 0.00 0.00 35 1011.4
20260503221429 59 221 16.0 20.0 0.00 0.00 0.00 34 1011.3
20260503220926 59 241 30.0 30.0 0.00 0.00 0.00 34 1011.4
20260503220422 59 249 19.0 21.0 0.00 0.00 0.00 33 1011.1
20260503215919 59 218 7.0 22.0 0.00 0.00 0.00 32 1011.4
20260503215416 59 250 9.0 19.0 0.00 0.00 0.00 33 1011.4
20260503214914 59 240 11.0 25.0 0.00 0.00 0.00 32 1011.2
20260503214411 59 252 18.0 34.0 0.00 0.00 0.00 33 1011.3
20260503213908 60 221 9.0 35.0 0.00 0.00 0.00 33 1011.4
20260503213406 60 215 17.0 32.0 0.00 0.00 0.00 32 1011.4
20260503212902 60 230 6.0 22.0 0.00 0.00 0.00 33 1011.4
20260503212400 59 221 20.0 23.0 0.00 0.00 0.00 32 1011.5
20260503211857 60 227 9.0 20.0 0.00 0.00 0.00 32 1011.5
20260503211354 60 239 7.0 22.0 0.00 0.00 0.00 32 1011.7
20260503210849 60 223 15.0 31.0 0.00 0.00 0.00 30 1011.6
20260503210347 60 212 15.0 25.0 0.00 0.00 0.00 31 1011.7
20260503205841 60 229 23.0 31.0 0.00 0.00 0.00 30 1011.8
20260503205339 60 232 19.0 31.0 0.00 0.00 0.00 31 1011.9
20260503204835 60 213 22.0 35.0 0.00 0.00 0.00 29 1011.7
20260503204332 60 219 20.0 27.0 0.00 0.00 0.00 30 1011.9
20260503203829 60 240 11.0 27.0 0.00 0.00 0.00 30 1011.9
20260503203327 60 236 22.0 35.0 0.00 0.00 0.00 33 1011.9
20260503202823 60 227 14.0 24.0 0.00 0.00 0.00 30 1012.1
20260503202322 60 224 14.0 20.0 0.00 0.00 0.00 32 1012.0
20260503201820 60 226 16.0 39.0 0.00 0.00 0.00 29 1012.0
20260503201316 60 233 11.0 22.0 0.00 0.00 0.00 34 1012.1
20260503200814 60 249 13.0 30.0 0.00 0.00 0.00 32 1012.2
20260503200309 60 259 9.0 30.0 0.00 0.00 0.00 31 1012.2
20260503195807 60 232 19.0 29.0 0.00 0.00 0.00 31 1012.3
20260503195304 60 217 12.0 33.0 0.00 0.00 0.00 31 1012.3
20260503194801 61 224 10.0 32.0 0.00 0.00 0.00 29 1012.3
20260503194256 60 244 14.0 31.0 0.00 0.00 0.00 32 1012.5
20260503193753 59 226 20.0 26.0 0.00 0.00 0.00 30 1012.4
20260503193249 60 238 20.0 31.0 0.00 0.00 0.00 33 1012.6
20260503192745 60 242 8.0 25.0 0.00 0.00 0.00 33 1012.6
20260503192240 60 211 26.0 26.0 0.00 0.00 0.00 30 1012.6
20260503191737 60 221 17.0 28.0 0.00 0.00 0.00 29 1012.7
20260503191234 60 221 13.0 28.0 0.00 0.00 0.00 30 1012.9
20260503190731 60 219 9.0 27.0 0.00 0.00 0.00 32 1012.7
20260503190228 59 196 11.0 28.0 0.00 0.00 0.00 32 1012.8
20260503185725 60 227 10.0 31.0 0.00 0.00 0.00 31 1013.0
20260503185221 60 233 19.0 26.0 0.00 0.00 0.00 32 1013.0
20260503184715 60 230 14.0 19.0 0.00 0.00 0.00 28 1013.0
20260503184212 60 256 8.0 27.0 0.00 0.00 0.00 31 1013.2
20260503183708 60 231 9.0 28.0 0.00 0.00 0.00 31 1013.1
20260503183206 60 245 13.0 22.0 0.00 0.00 0.00 35 1013.2
20260503182704 60 235 9.0 22.0 0.00 0.00 0.00 31 1013.5
20260503182202 60 212 17.0 30.0 0.00 0.00 0.00 28 1013.3
20260503181658 60 212 22.0 26.0 0.00 0.00 0.00 30 1013.5
20260503181155 60 237 21.0 22.0 0.00 0.00 0.00 31 1013.6
20260503180652 59 228 14.0 27.0 0.00 0.00 0.00 30 1013.6
20260503180150 59 226 15.0 31.0 0.00 0.00 0.00 31 1013.5
20260503175647 60 237 12.0 30.0 0.00 0.00 0.00 29 1013.6
20260503175144 59 223 12.0 31.0 0.00 0.00 0.00 30 1013.8
20260503174640 59 235 7.0 37.0 0.00 0.00 0.00 30 1013.8
20260503174138 59 216 15.0 32.0 0.00 0.00 0.00 29 1013.9
20260503173632 59 246 16.0 22.0 0.00 0.00 0.00 32 1013.8
20260503173130 59 228 18.0 27.0 0.00 0.00 0.00 31 1014.1
20260503172627 59 225 23.0 31.0 0.00 0.00 0.00 32 1013.8
20260503172124 59 233 10.0 32.0 0.00 0.00 0.00 38 1013.9
20260503171620 59 264 15.0 30.0 0.00 0.00 0.00 35 1014.2
20260503171117 58 265 18.0 25.0 0.00 0.00 0.00 34 1014.1
20260503170615 59 223 7.0 30.0 0.00 0.00 0.00 33 1014.3
20260503170111 59 262 18.0 27.0 0.00 0.00 0.00 34 1014.4
20260503151006 54 254 6.0 26.0 0.00 0.00 0.00 44 1015.5
20260503150503 54 245 20.0 22.0 0.00 0.00 0.00 44 1015.3
20260503131356 48 233 17.0 30.0 0.00 0.00 0.00 49 1015.7
20260503130853 47 235 13.0 21.0 0.00 0.00 0.00 53 1015.7
20260503130350 47 231 7.0 20.0 0.00 0.00 0.00 50 1015.7
20260503110738 37 202 6.0 8.0 0.00 0.00 0.00 67 1015.7
20260503110235 37 198 3.0 6.0 0.00 0.00 0.00 67 1015.6
20260503100201 37 204 8.0 8.0 0.00 0.00 0.00 67 1015.4
20260503090121 36 188 4.0 7.0 0.00 0.00 0.00 69 1015.5
20260503081556 37 182 2.0 5.0 0.00 0.00 0.00 68 1015.7
20260503081054 37 199 3.0 6.0 0.00 0.00 0.00 68 1015.8
20260503080549 37 174 2.0 4.0 0.00 0.00 0.00 68 1015.9
20260503072523 37 189 4.0 5.0 0.00 0.00 0.00 69 1015.7
20260503072020 37 198 3.0 5.0 0.00 0.00 0.00 67 1016.0
20260503071517 37 185 3.0 5.0 0.00 0.00 0.00 68 1016.0
20260503071014 37 190 4.0 5.0 0.00 0.00 0.00 68 1015.9
20260503070511 37 194 4.0 6.0 0.00 0.00 0.00 68 1016.0
20260503054923 38 185 3.0 5.0 0.00 0.00 0.00 66 1016.3
20260503054419 38 182 2.0 5.0 0.00 0.00 0.00 66 1016.1
20260503053917 38 158 1.0 4.0 0.00 0.00 0.00 66 1016.2
20260503053415 39 198 3.0 5.0 0.00 0.00 0.00 65 1016.1
20260503052911 39 192 4.0 5.0 0.00 0.00 0.00 65 1016.2
20260503052408 39 198 3.0 7.0 0.00 0.00 0.00 64 1016.3
20260503051904 39 188 3.0 7.0 0.00 0.00 0.00 65 1016.3
20260503051400 39 190 5.0 6.0 0.00 0.00 0.00 64 1016.1
20260503050857 39 195 3.0 5.0 0.00 0.00 0.00 64 1016.1
20260503050353 39 185 3.0 5.0 0.00 0.00 0.00 64 1016.5
20260503045851 39 196 3.0 4.0 0.00 0.00 0.00 64 1016.3
20260503045349 39 187 3.0 5.0 0.00 0.00 0.00 64 1016.4
20260503044845 39 206 4.0 5.0 0.00 0.00 0.00 64 1016.4
20260503044342 39 187 3.0 5.0 0.00 0.00 0.00 64 1016.2
20260503043839 39 198 3.0 5.0 0.00 0.00 0.00 64 1016.3
20260503043336 39 191 3.0 6.0 0.00 0.00 0.00 64 1016.2
20260503042833 40 186 3.0 6.0 0.00 0.00 0.00 63 1016.2
20260503042329 40 181 4.0 6.0 0.00 0.00 0.00 63 1016.3
20260503041825 40 189 4.0 6.0 0.00 0.00 0.00 63 1016.3
20260503041322 40 183 3.0 6.0 0.00 0.00 0.00 63 1016.1
20260503040820 40 186 5.0 6.0 0.00 0.00 0.00 63 1016.3
20260503040317 40 184 3.0 5.0 0.00 0.00 0.00 64 1016.2
20260503035814 40 170 3.0 5.0 0.00 0.00 0.00 64 1016.5
20260503035311 41 181 3.0 6.0 0.00 0.00 0.00 63 1016.3
20260503034808 41 190 4.0 5.0 0.00 0.00 0.00 64 1016.4
20260503034305 41 183 3.0 6.0 0.00 0.00 0.00 64 1016.2
20260503033803 41 202 3.0 5.0 0.00 0.00 0.00 64 1016.2
20260503033300 41 183 3.0 5.0 0.00 0.00 0.00 64 1016.4
20260503032758 41 182 3.0 5.0 0.00 0.00 0.00 63 1016.3
20260503032257 41 191 3.0 5.0 0.00 0.00 0.00 63 1016.4
20260503031753 41 189 3.0 5.0 0.00 0.00 0.00 63 1016.3
20260503031252 41 186 4.0 5.0 0.00 0.00 0.00 64 1016.4
20260503030747 42 197 4.0 7.0 0.00 0.00 0.00 63 1016.3
20260503030244 42 174 3.0 6.0 0.00 0.00 0.00 62 1016.6
20260503025741 42 180 2.0 4.0 0.00 0.00 0.00 60 1016.4
20260503025238 42 170 4.0 5.0 0.00 0.00 0.00 60 1016.5
20260503024735 42 174 3.0 5.0 0.00 0.00 0.00 58 1016.5
20260503024232 42 180 3.0 5.0 0.00 0.00 0.00 58 1016.5
20260503023729 42 162 2.0 4.0 0.00 0.00 0.00 59 1016.5
20260503023226 42 190 3.0 5.0 0.00 0.00 0.00 59 1016.5
20260503022722 42 130 2.0 4.0 0.00 0.00 0.00 58 1016.5
20260503022222 43 180 3.0 4.0 0.00 0.00 0.00 57 1016.6
20260503021720 43 169 2.0 5.0 0.00 0.00 0.00 56 1016.6
20260503021215 43 174 2.0 4.0 0.00 0.00 0.00 56 1016.5
20260503020713 43 180 2.0 4.0 0.00 0.00 0.00 56 1016.4
20260503020211 43 176 3.0 5.0 0.00 0.00 0.00 56 1016.4
20260503015707 43 177 2.0 5.0 0.00 0.00 0.00 57 1016.6
20260503015204 42 158 2.0 3.0 0.00 0.00 0.00 60 1016.5
20260503014700 43 89 0.0 2.0 0.00 0.00 0.00 60 1016.3
20260503014158 43 141 0.0 3.0 0.00 0.00 0.00 57 1016.5
20260503013655 43 107 1.0 4.0 0.00 0.00 0.00 57 1016.4
20260503013153 43 164 1.0 3.0 0.00 0.00 0.00 54 1016.3
20260503012650 43 165 2.0 3.0 0.00 0.00 0.00 53 1016.3
20260503012147 44 170 1.0 3.0 0.00 0.00 0.00 52 1016.4
20260503011643 43 173 2.0 3.0 0.00 0.00 0.00 55 1016.5
20260503011140 43 154 3.0 3.0 0.00 0.00 0.00 55 1016.4
20260503010636 44 168 2.0 3.0 0.00 0.00 0.00 54 1016.4
20260503010134 44 179 2.0 3.0 0.00 0.00 0.00 56 1016.3
20260503005631 44 174 2.0 3.0 0.00 0.00 0.00 57 1016.3
20260503005128 44 175 1.0 3.0 0.00 0.00 0.00 55 1016.3
20260503004624 44 170 1.0 3.0 0.00 0.00 0.00 55 1016.4
20260503004123 45 223 0.0 2.0 0.00 0.00 0.00 55 1016.2
20260503003619 45 191 1.0 2.0 0.00 0.00 0.00 53 1016.4
20260503003116 45 281 1.0 2.0 0.00 0.00 0.00 50 1016.1
20260503002613 45 253 2.0 3.0 0.00 0.00 0.00 52 1016.1
20260503002110 45 274 2.0 3.0 0.00 0.00 0.00 55 1016.2
20260503001606 46 277 3.0 5.0 0.00 0.00 0.00 49 1016.2
20260503001103 46 10 0.0 3.0 0.00 0.00 0.00 44 1016.1
20260503000601 46 345 3.0 3.0 0.00 0.00 0.00 43 1016.2
20260503000058 46 337 3.0 4.0 0.00 0.00 0.00 46 1016.1
20260502235554 46 321 2.0 5.0 0.00 0.00 0.00 46 1016.2
20260502235052 46 286 2.0 5.0 0.00 0.00 0.00 45 1016.2
20260502234548 46 29 0.0 5.0 0.00 0.00 0.00 46 1016.1
20260502234046 46 272 1.0 5.0 0.00 0.00 0.00 47 1016.1
20260502233546 46 318 2.0 6.0 0.00 0.00 0.00 43 1016.1
20260502233043 46 312 2.0 6.0 0.00 0.00 0.00 42 1016.1
20260502232539 46 316 2.0 5.0 0.00 0.00 0.00 43 1016.1
20260502232037 46 328 5.0 11.0 0.00 0.00 0.00 42 1016.2
20260502231533 46 292 7.0 11.0 0.00 0.00 0.00 42 1016.0
20260502231031 46 288 4.0 8.0 0.00 0.00 0.00 41 1016.0
20260502230530 46 298 4.0 10.0 0.00 0.00 0.00 39 1016.2
20260502230028 46 313 4.0 7.0 0.00 0.00 0.00 43 1016.3
20260502225523 46 300 4.0 9.0 0.00 0.00 0.00 42 1016.2
20260502225020 46 326 10.0 10.0 0.00 0.00 0.00 41 1016.2
20260502224516 46 331 5.0 9.0 0.00 0.00 0.00 45 1016.2